Welcome to the New NWS' Forecast!
Most changes are behind the scenes, but click here for differences you might notice.

Regional Weather Roundup (RWR)

Issued by Gray - Portland, ME (GYX)

                            
061 
ASUS41 KGYX 140505
RWRGYX
WEATHER ROUNDUP FOR MAINE AND NEW HAMPSHIRE
NATIONAL WEATHER SERVICE GRAY ME
100 AM EDT TUE AUG 14 2018

MEZ002-005-006-010-012-015-018-020-021-024-026-027-029-140600-
MAINE
  
CITY           SKY/WX    TMP DP  RH WIND       PRES   REMARKS
PORTLAND       CLOUDY    65  65 100 NE5       30.00S FOG              
SANFORD        LGT RAIN  66  66 100 NE9       29.99F FOG              
BAR HARBOR     FOG       64  64 100 NE3       30.02F VSB 1/4          
WISCASSET      CLOUDY    67  67 100 CALM      30.01F                  
ROCKLAND       FOG       65  65 100 NE3       30.01F VSB 1/2          
FRYEBURG       CLOUDY    69  69 100 CALM      30.01F                  
LEWISTONAUBURN LGT RAIN  69  67  93 CALM      30.00F                  
AUGUSTA        CLOUDY    68  67  96 SE3       30.01F                  
WATERVILLE     CLOUDY    68  67  96 CALM      29.98F                  
BANGOR         CLOUDY    70  68  93 CALM      30.02S                  
GREENVILLE       N/A     67  66  97 CALM      30.02F                  
MILLINOCKET    NOT AVBL                                               
HOULTON        FAIR      68  66  93 S7        30.00F                  
PRESQUE ISLE   FAIR      67  65  93 S3        30.01S FOG              
FRENCHVILLE    FAIR      70  64  81 S5        29.99S                  
CARIBOU        FAIR      68  65  90 S5        29.99S                  
$$

NHZ002-005-008-009-011-012-014-140600-
NEW HAMPSHIRE
  
CITY           SKY/WX    TMP DP  RH WIND       PRES   REMARKS
PORTSMOUTH     DRZL/FOG  66  66  99 NE7       29.96F VSB 3/4          
ROCHESTER      LGT RAIN  66  66 100 NE5       29.98F FOG              
NASHUA         CLOUDY    68  68 100 E7        29.96F                  
MANCHESTER     CLOUDY    69  68  96 E7        29.94F                  
CONCORD        LGT RAIN  69  68  96 NE5       29.96F FOG              
LACONIA        LGT RAIN  68  67  96 NE6       29.99F FOG              
PLYMOUTH       CLOUDY    68  66  94 CALM      29.98F FOG              
BERLIN         MOCLDY    68  66  93 N3        30.02F                  
WHITEFIELD     MOCLDY    68  66  93 CALM      30.00F                  
JAFFREY        CLOUDY    68  67  96 CALM      29.99S                  
KEENE          CLOUDY   N/A N/A N/A CALM      29.95F                  
LEBANON        CLOUDY    71  66  84 NE3       29.96F                  
MT WASHINGTON  LGT RAIN  52  52 100 SE12        N/A  VSB 0            
$$

VTZ005-007-008-140600-
VERMONT
  
CITY           SKY/WX    TMP DP  RH WIND       PRES   REMARKS
ST JOHNSBURY     N/A     69  69 100 MISG      29.97F                  
MONTPELIER     MOCLDY    67  67 100 CALM      30.03F                  
BURLINGTON     FAIR      75  65  70 E8        29.95S                  
$$

MAZ007-012-024-CTZ003-RIZ002-NYZ038-NYZ072-140600-
SOUTHERN NEW ENGLAND AND NY
  
CITY           SKY/WX    TMP DP  RH WIND       PRES   REMARKS
BOSTON         FOG       70  69  97 E6        29.95  VSB 1/4          
WORCESTER      FOG       66  66 100 NE5       29.97S VSB 1/4          
NANTUCKET      FOG       69  69 100 SE5       29.94F VSB 1/4          
PROVIDENCE     CLOUDY    74  73  97 CALM      29.94S                  
HARTFORD       CLOUDY    72  71  97 CALM      29.91S                  
ALBANY         DRIZZLE   71  68  90 N7        29.90F                  
NEW YORK CITY  MOCLDY    74  71  91 S3        29.89R                  
$$

ANZ081-ANZ082-ANZ150-NHZ014-MEZ023>029-140600-
COASTAL MARINE OBSERVATIONS
  
STATION/POSITION TIME  TEMP    WIND        PRES    WAVE
                       AIR SEA DIR/SP/G            HT/PER
                 (UTC) (F)     (DEG/KT/KT) (MB)    (FT/S)
MOUNT DESERT ROC 0500   63      70/  5/  6 1016.0F
MATINICUS ROCK   0400   66      90/  8/  9 1015.6F
ISLE OF SHOALS   0400   66      30/ 13/ 14 1014.3F
JEFFREYS LEDGE   0436      71                N/A     2/ 4
$$

.............KEY..............
   WCI - WIND CHILL
   TC  - TEMPERATURE IN CELSIUS
   VSB - VISIBILITY IN MILES
   HX  - HEAT INDEX
   FAIR- INDICATES FEW OR NO CLOUDS BELOW 12,000 FT, WITH NO 
         SIGNIFICANT WEATHER AND/OR OBSTRUCTIONS TO VISIBILITY.